FW5790 Weather Reports


Display with metric or nautical units.
time (UTC)temp
F
wind
direction
speed
MPH
gust
MPH
rain 1hr
in
rain 24hr
in
rain mn
in
humidity
%
barometer
mb
20260902200051 91 0 0.0 0.0 0.00 0.00 0.00 65 1018.3
20260902194550 92 0 0.0 0.0 0.00 0.00 0.00 61 1018.6
20260902193100 94 0 0.0 0.0 0.00 0.00 0.00 57 1018.5
20260902191554 94 0 0.0 0.0 0.00 0.00 0.00 56 1018.7
20260902190054 95 0 0.0 0.0 0.00 0.00 0.00 58 1019.1
20260902184552 96 0 0.0 0.0 0.00 0.00 0.00 60 1019.0
20260902183101 96 0 0.0 0.0 0.00 0.00 0.00 59 1019.1
20260902181600 95 0 0.0 0.0 0.00 0.00 0.00 59 1019.1
20260902180103 95 0 0.0 0.0 0.00 0.00 0.00 58 1019.3
20260902174607 95 0 0.0 0.0 0.00 0.00 0.00 58 1019.5
20260902173103 94 0 0.0 0.0 0.00 0.00 0.00 60 1019.7
20260902171603 94 0 0.0 0.0 0.00 0.00 0.00 58 1019.8
20260902170100 94 0 0.0 0.0 0.00 0.00 0.00 60 1020.0
20260902164559 93 0 0.0 0.0 0.00 0.00 0.00 61 1020.0
20260902163053 93 0 0.0 0.0 0.00 0.00 0.00 65 1020.4
20260902161614 92 0 0.0 0.0 0.00 0.00 0.00 67 1020.5
20260902160056 91 0 0.0 0.0 0.00 0.00 0.00 66 1020.6
20260902154552 91 0 0.0 0.0 0.00 0.00 0.00 70 1020.8
20260902153053 90 0 0.0 0.0 0.00 0.00 0.00 70 1020.6
20260902151549 89 0 0.0 0.0 0.00 0.00 0.00 70 1020.6
20260902150056 89 0 0.0 0.0 0.00 0.00 0.00 72 1020.7
20260902144551 89 0 0.0 0.0 0.00 0.00 0.00 74 1020.7
20260902143056 88 0 0.0 0.0 0.00 0.00 0.00 73 1020.7
20260902141604 87 0 0.0 0.0 0.00 0.00 0.00 75 1020.7
20260902140055 86 0 0.0 0.0 0.00 0.00 0.00 78 1020.7
20260902134553 85 0 0.0 0.0 0.00 0.00 0.00 78 1020.6
20260902133102 84 0 0.0 0.0 0.00 0.00 0.00 79 1020.6
20260902131559 82 0 0.0 0.0 0.00 0.00 0.00 82 1020.7
20260902130053 83 0 0.0 0.0 0.00 0.00 0.00 79 1020.6
20260902124600 82 0 0.0 0.0 0.00 0.00 0.00 81 1020.5
20260902123058 79 0 0.0 0.0 0.00 0.00 0.00 85 1020.4
20260902121611 76 0 0.0 0.0 0.00 0.00 0.00 88 1020.3
20260902120113 73 0 0.0 0.0 0.00 0.00 0.00 90 1020.1
20260902114619 72 0 0.0 0.0 0.00 0.00 0.00 91 1020.1
20260902113102 72 0 0.0 0.0 0.00 0.00 0.00 90 1019.9
20260902111602 72 0 0.0 0.0 0.00 0.00 0.00 90 1019.8
20260902110100 72 0 0.0 0.0 0.00 0.00 0.00 90 1019.8
20260902104552 72 0 0.0 0.0 0.00 0.00 0.00 90 1019.8
20260902103119 72 0 0.0 0.0 0.00 0.00 0.00 90 1019.6
20260902101555 72 0 0.0 0.0 0.00 0.00 0.00 90 1019.5
20260902100055 72 0 0.0 0.0 0.00 0.00 0.00 90 1019.4
20260902094559 72 0 0.0 0.0 0.00 0.00 0.00 90 1019.4
20260902093102 73 0 0.0 0.0 0.00 0.00 0.00 90 1019.2
20260902091558 73 0 0.0 0.0 0.00 0.00 0.00 90 1019.1
20260902090101 73 0 0.0 0.0 0.00 0.00 0.00 90 1018.8
20260902084552 73 0 0.0 0.0 0.00 0.00 0.00 90 1018.9
20260902083050 73 0 0.0 0.0 0.00 0.00 0.00 90 1018.9
20260902081556 73 0 0.0 0.0 0.00 0.00 0.00 89 1018.8
20260902080056 73 0 0.0 0.0 0.00 0.00 0.00 89 1018.6
20260902074604 73 0 0.0 0.0 0.00 0.00 0.00 89 1018.6
20260902073051 74 0 0.0 0.0 0.00 0.00 0.00 89 1018.7
20260902071602 74 0 0.0 0.0 0.00 0.00 0.00 88 1018.7
20260902070059 74 0 0.0 0.0 0.00 0.00 0.00 88 1018.7
20260902064559 74 0 0.0 0.0 0.00 0.00 0.00 88 1018.7
20260902063056 74 0 0.0 0.0 0.00 0.00 0.00 89 1018.7
20260902061552 74 0 0.0 0.0 0.00 0.00 0.00 89 1018.8
20260902060104 74 0 0.0 0.0 0.00 0.00 0.00 89 1018.7
20260902054555 74 0 0.0 0.0 0.00 0.00 0.00 88 1018.8
20260902053101 74 0 0.0 0.0 0.00 0.00 0.00 88 1018.8
20260902051559 74 0 0.0 0.0 0.00 0.00 0.00 88 1018.8
20260902050059 74 0 0.0 0.0 0.00 0.00 0.00 88 1018.8
20260902044557 75 0 0.0 0.0 0.00 0.00 0.00 88 1018.8
20260902043055 75 0 0.0 0.0 0.00 0.00 0.00 88 1018.8
20260902041559 75 0 0.0 0.0 0.00 0.00 0.00 88 1018.8
20260902040103 75 0 0.0 0.0 0.00 0.00 0.00 88 1018.6
20260902034604 75 0 0.0 0.0 0.00 0.00 0.00 88 1018.6
20260902033059 75 0 0.0 0.0 0.00 0.00 0.00 87 1018.7
20260902031553 75 0 0.0 0.0 0.00 0.00 0.00 86 1018.8
20260902030053 76 0 0.0 0.0 0.00 0.00 0.00 85 1018.8
20260902024552 76 0 0.0 0.0 0.00 0.00 0.00 85 1018.9
20260902023053 76 0 0.0 0.0 0.00 0.00 0.00 85 1018.8
20260902021601 77 0 0.0 0.0 0.00 0.00 0.00 84 1018.8
20260902020101 77 0 0.0 0.0 0.00 0.00 0.00 85 1018.7
20260902014552 78 0 0.0 0.0 0.00 0.00 0.00 85 1018.8
20260902013054 78 0 0.0 0.0 0.00 0.00 0.00 85 1018.7
20260902011553 79 0 0.0 0.0 0.00 0.00 0.00 84 1018.5
20260902010057 80 0 0.0 1.0 0.00 0.00 0.00 83 1018.3
20260902004555 81 0 0.0 0.0 0.00 0.00 0.00 82 1018.1
20260902003053 82 0 0.0 0.0 0.00 0.00 0.00 81 1018.0
20260902001558 83 0 0.0 0.0 0.00 0.00 0.00 79 1018.0
20260902000056 83 0 0.0 0.0 0.00 0.00 0.00 73 1018.2
20260901234602 84 0 0.0 0.0 0.00 0.00 0.00 73 1018.2
20260901233105 85 0 0.0 0.0 0.00 0.00 0.00 73 1018.4
20260901231554 86 0 0.0 0.0 0.00 0.00 0.00 71 1018.3
20260901230055 86 0 0.0 0.0 0.00 0.00 0.00 71 1018.4
20260901224551 87 0 0.0 0.0 0.00 0.00 0.00 71 1018.3
20260901223058 87 0 0.0 0.0 0.00 0.00 0.00 69 1018.3
20260901221558 88 0 0.0 0.0 0.00 0.00 0.00 68 1018.2
20260901220115 88 0 0.0 0.0 0.00 0.00 0.00 68 1018.1
20260901214551 89 0 0.0 0.0 0.00 0.00 0.00 65 1018.1
20260901213109 89 0 0.0 0.0 0.00 0.00 0.00 67 1018.1
20260901211557 89 0 0.0 0.0 0.00 0.00 0.00 68 1018.3
20260901210051 90 0 0.0 1.0 0.00 0.00 0.00 63 1018.3
20260901204551 90 0 0.0 1.0 0.00 0.00 0.00 64 1018.5
20260901203101 90 0 0.0 1.0 0.00 0.00 0.00 65 1018.5
20260901201558 90 0 0.0 1.0 0.00 0.00 0.00 66 1018.7